STARLINK-4101 (53142 NORAD) Tracking and Keplerian Element Data

This shows tracking and keplerian element data for the satellite.

Feedback or suggestion? Click here.




ElementValue
Catalog53142
NameSTARLINK-4101
Epoch Orbit1171
Epoch Day270.25001157
Epoch Year2022
RAAN67.968
Inclination53.2179
Eccentricity0.0001722
Argument of Perigee45.9893
Mean Anonmoly42.4099
Mean Motion15.08835069
Decay Rate-7.709E-05
L11 53142U 22083L 22270.25001157 -.00007709 00000+0 -46685-3 0 9990
L22 53142 53.2179 67.9680 0001722 45.9893 42.4099 15.08835069 11713

Live tracking and technical data element details for STARLINK-4101 (NORAD 53142). STARLINK-4101 can be tracked NOW for your location showing map with azimuth and elevation plus other details from your city location.

Track the satellite on the map from your city or location and see movement details for azimuth, elevation, latitude, longitude, range, height, and movement on the map or in text.







IsCatalogInMostPopularTable: catalog: 53142, numindb: 6
Update: records affected: 1



GetName: 53142 STARLINK-4101

Hit Count: updated at: Fri, 30 Sep 2022 02:46:00 GMT